FW8688 Weather Reports


Display with metric or nautical units.
time (UTC)temp
F
wind
direction
speed
MPH
gust
MPH
rain 1hr
in
rain 24hr
in
rain mn
in
humidity
%
barometer
mb
20260509051304 64 124 2.0 3.0 0.00 0.00 0.00 34 1011.2
20260509050804 64 150 1.0 2.0 0.00 0.00 0.00 34 1011.2
20260509050305 64 118 0.0 1.0 0.00 0.00 0.00 35 1011.2
20260509045805 65 118 0.0 2.0 0.00 0.00 0.00 33 1011.2
20260509045306 65 122 2.0 3.0 0.00 0.00 0.00 34 1011.2
20260509044804 65 156 0.0 0.0 0.00 0.00 0.00 34 1011.1
20260509044304 65 178 0.0 0.0 0.00 0.00 0.00 34 1011.1
20260509043805 65 178 0.0 2.0 0.00 0.00 0.00 33 1011.1
20260509043305 65 178 1.0 2.0 0.00 0.00 0.00 33 1011.1
20260509041804 66 65 1.0 3.0 0.00 0.00 0.00 31 1010.9
20260509041304 67 65 2.0 3.0 0.00 0.00 0.00 31 1010.9
20260509040804 67 20 1.0 2.0 0.00 0.00 0.00 31 1010.9
20260509040305 68 342 0.0 0.0 0.00 0.00 0.00 30 1010.9
20260509035306 68 342 1.0 2.0 0.00 0.00 0.00 30 1010.8
20260509034305 69 162 0.0 0.0 0.00 0.00 0.00 29 1010.8
20260509033804 69 162 0.0 0.0 0.00 0.00 0.00 28 1010.7
20260509033305 69 162 0.0 0.0 0.00 0.00 0.00 28 1010.7
20260509032306 69 162 0.0 0.0 0.00 0.00 0.00 28 1010.6
20260509031805 70 227 2.0 3.0 0.00 0.00 0.00 28 1010.6
20260509031305 70 242 0.0 0.0 0.00 0.00 0.00 27 1010.6
20260509030804 71 242 0.0 2.0 0.00 0.00 0.00 26 1010.6
20260509025306 72 217 2.0 3.0 0.00 0.00 0.00 25 1010.5
20260509024804 73 5 1.0 2.0 0.00 0.00 0.00 23 1010.5
20260509024304 73 76 1.0 3.0 0.00 0.00 0.00 23 1010.4
20260509023804 73 74 1.0 2.0 0.00 0.00 0.00 22 1010.3
20260509023305 74 74 2.0 3.0 0.00 0.00 0.00 21 1010.3
20260509022805 74 72 2.0 3.0 0.00 0.00 0.00 21 1010.3
20260509022306 75 27 0.0 0.0 0.00 0.00 0.00 21 1010.3
20260509021804 75 27 0.0 0.0 0.00 0.00 0.00 20 1010.3
20260509021304 76 27 0.0 1.0 0.00 0.00 0.00 20 1010.2
20260509020804 76 27 0.0 1.0 0.00 0.00 0.00 20 1010.3
20260509020304 76 27 1.0 3.0 0.00 0.00 0.00 20 1010.2
20260509015804 76 353 1.0 3.0 0.00 0.00 0.00 20 1010.2
20260509015306 77 2 1.0 3.0 0.00 0.00 0.00 19 1010.2
20260509014804 77 344 2.0 3.0 0.00 0.00 0.00 19 1010.1
20260509014305 77 14 3.0 6.0 0.00 0.00 0.00 19 1010.2
20260509013804 77 3 4.0 7.0 0.00 0.00 0.00 19 1010.4
20260509013304 77 7 4.0 7.0 0.00 0.00 0.00 19 1010.4
20260509012804 77 350 3.0 7.0 0.00 0.00 0.00 19 1010.4
20260509011304 77 4 5.0 10.0 0.00 0.00 0.00 19 1010.4
20260509010805 76 356 5.0 8.0 0.00 0.00 0.00 19 1010.4
20260509010304 76 23 6.0 14.0 0.00 0.00 0.00 19 1010.4
20260509005804 76 346 7.0 12.0 0.00 0.00 0.00 20 1010.4
20260509005306 76 8 9.0 16.0 0.00 0.00 0.00 20 1010.4
20260509004304 77 0 5.0 15.0 0.00 0.00 0.00 20 1010.5
20260509003304 77 3 7.0 12.0 0.00 0.00 0.00 19 1010.5
20260509002804 76 42 7.0 10.0 0.00 0.00 0.00 19 1010.5
20260509002306 77 25 9.0 14.0 0.00 0.00 0.00 19 1010.5
20260509001804 77 25 9.0 15.0 0.00 0.00 0.00 19 1010.7
20260509001304 77 16 6.0 12.0 0.00 0.00 0.00 20 1010.7
20260509000804 77 11 6.0 12.0 0.00 0.00 0.00 20 1010.7
20260509000305 77 12 5.0 12.0 0.00 0.00 0.00 20 1010.7
20260508235805 77 15 7.0 16.0 0.00 0.00 0.00 20 1010.7
20260508235306 77 13 8.0 13.0 0.00 0.00 0.00 20 1010.6
20260508234805 76 356 9.0 15.0 0.00 0.00 0.00 20 1010.6
20260508234304 76 25 8.0 15.0 0.00 0.00 0.00 20 1010.6
20260508233804 76 20 9.0 15.0 0.00 0.00 0.00 20 1010.6
20260508232804 77 6 10.0 15.0 0.00 0.00 0.00 20 1010.8
20260508232307 77 24 8.0 14.0 0.00 0.00 0.00 20 1010.8
20260508231804 77 6 10.0 15.0 0.00 0.00 0.00 20 1010.8
20260508231304 76 10 8.0 14.0 0.00 0.00 0.00 21 1010.9
20260508230804 76 38 11.0 20.0 0.00 0.00 0.00 20 1010.9
20260508230305 76 35 9.0 17.0 0.00 0.00 0.00 21 1010.9
20260508225805 76 25 11.0 20.0 0.00 0.00 0.00 21 1010.8
20260508224804 76 10 9.0 16.0 0.00 0.00 0.00 21 1011.1
20260508224304 76 38 10.0 18.0 0.00 0.00 0.00 21 1011.2
20260508223804 76 18 10.0 14.0 0.00 0.00 0.00 21 1011.2
20260508223304 76 0 9.0 17.0 0.00 0.00 0.00 22 1011.3
20260508222804 76 17 12.0 17.0 0.00 0.00 0.00 21 1011.3
20260508222306 76 39 9.0 17.0 0.00 0.00 0.00 22 1011.3
20260508220804 76 29 10.0 20.0 0.00 0.00 0.00 22 1011.4
20260508220304 76 19 11.0 18.0 0.00 0.00 0.00 21 1011.4
20260508215805 76 23 11.0 20.0 0.00 0.00 0.00 22 1011.7
20260508215306 75 13 12.0 17.0 0.00 0.00 0.00 22 1011.7
20260508213804 75 28 9.0 18.0 0.00 0.00 0.00 21 1011.8
20260508213304 76 24 10.0 17.0 0.00 0.00 0.00 21 1011.8
20260508212805 75 336 10.0 13.0 0.00 0.00 0.00 22 1011.9
20260508212306 75 349 12.0 18.0 0.00 0.00 0.00 22 1011.9
20260508211805 75 15 10.0 16.0 0.00 0.00 0.00 21 1011.9
20260508211304 75 5 13.0 20.0 0.00 0.00 0.00 21 1012.0
20260508210804 75 23 10.0 25.0 0.00 0.00 0.00 22 1012.0
20260508210305 75 11 11.0 23.0 0.00 0.00 0.00 22 1012.0
20260508205804 75 35 10.0 21.0 0.00 0.00 0.00 22 1012.0
20260508205306 74 24 10.0 21.0 0.00 0.00 0.00 22 1012.0
20260508204805 74 32 12.0 18.0 0.00 0.00 0.00 22 1012.3
20260508204304 74 26 14.0 22.0 0.00 0.00 0.00 22 1012.3
20260508203304 74 35 11.0 23.0 0.00 0.00 0.00 22 1012.3
20260508202307 74 19 10.0 18.0 0.00 0.00 0.00 22 1012.5
20260508201804 74 23 12.0 22.0 0.00 0.00 0.00 22 1012.5
20260508201304 74 29 13.0 22.0 0.00 0.00 0.00 22 1012.5
20260508200804 74 17 13.0 22.0 0.00 0.00 0.00 23 1012.5
20260508200304 74 27 9.0 15.0 0.00 0.00 0.00 22 1012.7
20260508195804 74 27 12.0 20.0 0.00 0.00 0.00 22 1012.7
20260508195306 74 20 11.0 17.0 0.00 0.00 0.00 22 1012.8
20260508194804 74 4 13.0 17.0 0.00 0.00 0.00 22 1012.7
20260508194304 74 26 13.0 18.0 0.00 0.00 0.00 23 1012.6
20260508193804 74 26 13.0 22.0 0.00 0.00 0.00 23 1012.7
20260508193304 74 24 11.0 17.0 0.00 0.00 0.00 23 1012.8
20260508192805 74 23 8.0 15.0 0.00 0.00 0.00 23 1012.8
20260508191304 73 13 7.0 13.0 0.00 0.00 0.00 25 1013.1
20260508190805 73 19 7.0 13.0 0.00 0.00 0.00 26 1013.2
20260508190304 73 358 9.0 13.0 0.00 0.00 0.00 25 1013.5
20260508185805 73 351 8.0 14.0 0.00 0.00 0.00 25 1013.5
20260508185306 73 351 10.0 13.0 0.00 0.00 0.00 26 1013.5
20260508184804 73 21 9.0 14.0 0.00 0.00 0.00 26 1013.5
20260508184305 73 38 5.0 12.0 0.00 0.00 0.00 27 1013.5
20260508183804 72 3 7.0 12.0 0.00 0.00 0.00 28 1013.7
20260508182804 71 28 6.0 12.0 0.00 0.00 0.00 29 1013.7
20260508182306 71 341 6.0 10.0 0.00 0.00 0.00 30 1013.7
20260508181804 71 0 6.0 13.0 0.00 0.00 0.00 30 1013.9
20260508181304 71 26 6.0 10.0 0.00 0.00 0.00 30 1013.9
20260508180804 71 28 7.0 12.0 0.00 0.00 0.00 29 1013.9
20260508180304 71 11 7.0 12.0 0.00 0.00 0.00 29 1013.9
20260508175804 71 30 7.0 12.0 0.00 0.00 0.00 29 1014.0
20260508175306 72 45 6.0 9.0 0.00 0.00 0.00 28 1013.8
20260508174804 72 357 4.0 9.0 0.00 0.00 0.00 28 1013.8
20260508173304 72 194 1.0 7.0 0.00 0.00 0.00 30 1014.0
20260508172307 71 55 5.0 14.0 0.00 0.00 0.00 34 1014.0
20260508171805 71 130 4.0 6.0 0.00 0.00 0.00 37 1014.0
20260508171304 70 255 2.0 5.0 0.00 0.00 0.00 35 1014.0
20260508170804 70 177 1.0 3.0 0.00 0.00 0.00 37 1014.1
20260508165804 68 209 3.0 5.0 0.00 0.00 0.00 38 1014.0
20260508165306 68 201 3.0 7.0 0.00 0.00 0.00 40 1014.0
20260508164804 68 160 2.0 5.0 0.00 0.00 0.00 39 1014.1
20260508163804 67 176 2.0 5.0 0.00 0.00 0.00 41 1014.1
20260508163305 67 135 3.0 5.0 0.00 0.00 0.00 42 1014.1
20260508162306 66 175 3.0 5.0 0.00 0.00 0.00 43 1014.1
20260508161804 65 170 3.0 6.0 0.00 0.00 0.00 44 1014.1
20260508161304 65 216 4.0 6.0 0.00 0.00 0.00 44 1014.1
20260508160804 65 187 3.0 6.0 0.00 0.00 0.00 44 1014.1
20260508155804 65 160 3.0 5.0 0.00 0.00 0.00 44 1014.1
20260508155306 64 159 3.0 5.0 0.00 0.00 0.00 45 1013.9
20260508154804 64 169 2.0 3.0 0.00 0.00 0.00 47 1013.9
20260508154304 63 162 0.0 3.0 0.00 0.00 0.00 48 1013.9
20260508153804 63 166 3.0 3.0 0.00 0.00 0.00 48 1013.9
20260508153304 63 183 2.0 3.0 0.00 0.00 0.00 49 1013.9
20260508152306 62 176 3.0 3.0 0.00 0.00 0.00 51 1013.9
20260508151804 62 169 2.0 3.0 0.00 0.00 0.00 51 1013.8
20260508151305 62 165 2.0 5.0 0.00 0.00 0.00 51 1013.8
20260508150804 62 172 1.0 3.0 0.00 0.00 0.00 53 1013.8
20260508145804 61 180 2.0 3.0 0.00 0.00 0.00 53 1013.8
20260508145306 61 180 1.0 3.0 0.00 0.00 0.00 54 1013.7
20260508144804 61 155 1.0 2.0 0.00 0.00 0.00 55 1013.8
20260508144304 60 164 1.0 2.0 0.00 0.00 0.00 57 1013.9
20260508143804 59 135 0.0 0.0 0.00 0.00 0.00 59 1013.9
20260508142306 57 59 0.0 0.0 0.00 0.00 0.00 61 1013.8
20260508141804 56 59 0.0 0.0 0.00 0.00 0.00 62 1013.8
20260508141304 56 59 0.0 0.0 0.00 0.00 0.00 64 1013.8
20260508140804 55 59 0.0 0.0 0.00 0.00 0.00 66 1013.8
20260508140304 54 59 0.0 0.0 0.00 0.00 0.00 67 1013.8
20260508135804 54 59 0.0 0.0 0.00 0.00 0.00 67 1013.6
20260508135306 53 59 0.0 0.0 0.00 0.00 0.00 67 1013.6
20260508134304 52 59 1.0 2.0 0.00 0.00 0.00 69 1013.5
20260508133804 51 59 0.0 0.0 0.00 0.00 0.00 69 1013.5
20260508132306 49 59 0.0 0.0 0.00 0.00 0.00 69 1013.3
20260508131804 49 59 0.0 0.0 0.00 0.00 0.00 69 1013.2
20260508131304 49 59 0.0 0.0 0.00 0.00 0.00 69 1013.1
20260508130804 49 59 0.0 0.0 0.00 0.00 0.00 69 1013.1
20260508130304 49 59 0.0 0.0 0.00 0.00 0.00 68 1013.1
20260508125805 49 59 0.0 0.0 0.00 0.00 0.00 68 1013.0
20260508125306 49 59 0.0 0.0 0.00 0.00 0.00 68 1013.0
20260508124804 49 59 0.0 0.0 0.00 0.00 0.00 67 1012.8
20260508124304 49 59 0.0 0.0 0.00 0.00 0.00 67 1012.8
20260508123804 49 59 0.0 0.0 0.00 0.00 0.00 66 1012.8
20260508123304 49 59 0.0 0.0 0.00 0.00 0.00 66 1012.5
20260508122804 49 59 1.0 2.0 0.00 0.00 0.00 66 1012.5
20260508122307 49 40 0.0 0.0 0.00 0.00 0.00 66 1012.5
20260508121804 49 40 0.0 0.0 0.00 0.00 0.00 65 1012.5
20260508121304 50 40 0.0 0.0 0.00 0.00 0.00 65 1012.4
20260508120804 50 40 0.0 0.0 0.00 0.00 0.00 64 1012.4
20260508120304 50 40 0.0 0.0 0.00 0.00 0.00 65 1012.4
20260508115804 50 40 0.0 0.0 0.00 0.00 0.00 65 1012.3
20260508115306 50 40 0.0 1.0 0.00 0.00 0.00 64 1012.3
20260508114804 50 40 1.0 3.0 0.00 0.00 0.00 65 1012.3
20260508114304 50 52 1.0 2.0 0.00 0.00 0.00 64 1012.3
20260508113304 50 132 0.0 0.0 0.00 0.00 0.00 64 1012.0
20260508112804 51 132 0.0 0.0 0.00 0.00 0.00 63 1012.0
20260508111804 51 132 0.0 2.0 0.00 0.00 0.00 63 1012.0
20260508111304 51 132 0.0 0.0 0.00 0.00 0.00 63 1012.0
20260508110804 51 132 0.0 0.0 0.00 0.00 0.00 63 1012.0
20260508110304 51 132 0.0 2.0 0.00 0.00 0.00 63 1011.9
20260508105804 51 133 2.0 3.0 0.00 0.00 0.00 63 1011.9
20260508104804 51 167 0.0 3.0 0.00 0.00 0.00 62 1011.8
20260508104304 52 325 0.0 1.0 0.00 0.00 0.00 62 1011.8
20260508103804 51 325 2.0 3.0 0.00 0.00 0.00 62 1011.8
20260508102306 52 207 0.0 2.0 0.00 0.00 0.00 60 1011.7
20260508101804 52 214 3.0 3.0 0.00 0.00 0.00 59 1011.7
20260508101304 53 336 0.0 2.0 0.00 0.00 0.00 57 1011.7
20260508100304 54 26 1.0 3.0 0.00 0.00 0.00 56 1011.6
20260508095804 54 174 1.0 3.0 0.00 0.00 0.00 56 1011.7
20260508095306 54 106 0.0 3.0 0.00 0.00 0.00 55 1011.7
20260508094304 55 105 1.0 3.0 0.00 0.00 0.00 54 1011.7
20260508093804 55 14 2.0 5.0 0.00 0.00 0.00 53 1011.6
20260508093304 54 12 3.0 5.0 0.00 0.00 0.00 55 1011.6
20260508092804 53 352 3.0 5.0 0.00 0.00 0.00 57 1011.3
20260508092312 53 354 3.0 5.0 0.00 0.00 0.00 58 1011.4
20260508091803 53 323 2.0 3.0 0.00 0.00 0.00 57 1011.6
20260508091304 54 37 0.0 0.0 0.00 0.00 0.00 56 1011.6
20260508090804 54 55 0.0 0.0 0.00 0.00 0.00 56 1011.6
20260508090304 54 55 0.0 1.0 0.00 0.00 0.00 55 1011.6
20260508084804 55 49 1.0 2.0 0.00 0.00 0.00 53 1011.3
20260508084303 54 49 2.0 3.0 0.00 0.00 0.00 55 1011.3
20260508083804 54 49 2.0 3.0 0.00 0.00 0.00 56 1011.4
20260508082804 54 63 1.0 2.0 0.00 0.00 0.00 56 1011.3
20260508082306 55 49 1.0 2.0 0.00 0.00 0.00 55 1011.3
20260508081804 55 296 0.0 0.0 0.00 0.00 0.00 55 1011.3
20260508081304 55 296 0.0 0.0 0.00 0.00 0.00 55 1011.4
20260508080804 55 296 0.0 0.0 0.00 0.00 0.00 54 1011.4
20260508080304 55 296 0.0 0.0 0.00 0.00 0.00 54 1011.4
20260508075308 55 296 1.0 2.0 0.00 0.00 0.00 55 1011.4
20260508074804 55 278 1.0 2.0 0.00 0.00 0.00 54 1011.4
20260508074304 56 236 2.0 3.0 0.00 0.00 0.00 53 1011.4
20260508073804 56 77 1.0 2.0 0.00 0.00 0.00 52 1011.4
20260508073304 57 78 3.0 5.0 0.00 0.00 0.00 51 1011.4
20260508072804 56 30 2.0 3.0 0.00 0.00 0.00 51 1011.4
20260508072307 56 30 1.0 2.0 0.00 0.00 0.00 51 1011.4
20260508071804 57 30 0.0 0.0 0.00 0.00 0.00 52 1011.4
20260508071304 57 30 0.0 2.0 0.00 0.00 0.00 52 1011.4
20260508070304 57 26 2.0 3.0 0.00 0.00 0.00 52 1011.4
20260508065306 57 19 0.0 3.0 0.00 0.00 0.00 52 1011.4
20260508064303 57 6 2.0 3.0 0.00 0.00 0.00 52 1011.4
20260508063804 57 5 0.0 2.0 0.00 0.00 0.00 52 1011.3
20260508063304 57 5 0.0 3.0 0.00 0.00 0.00 52 1011.2
20260508062804 57 21 1.0 3.0 0.00 0.00 0.00 51 1011.2
20260508061804 58 80 0.0 0.0 0.00 0.00 0.00 50 1011.1
20260508061304 58 80 0.0 0.0 0.00 0.00 0.00 50 1011.1
20260508060804 58 80 0.0 0.0 0.00 0.00 0.00 50 1011.1
20260508055804 58 80 0.0 0.0 0.00 0.00 0.00 50 1011.1
20260508055306 59 80 0.0 0.0 0.00 0.00 0.00 49 1010.7
20260508054304 59 80 0.0 0.0 0.00 0.00 0.00 47 1010.7
20260508053804 60 80 0.0 0.0 0.00 0.00 0.00 46 1010.7
20260508053304 60 80 0.0 0.0 0.00 0.00 0.00 46 1010.6
20260508052804 60 80 0.0 0.0 0.00 0.00 0.00 44 1010.6
20260508052306 60 80 0.0 0.0 0.00 0.00 0.00 44 1010.6
20260508051804 60 80 0.0 0.0 0.00 0.00 0.00 43 1010.9